Weather in Koprubasi

Turkey     38°44′49″N   28°24′16″E
temp.,
°C
wind,
m/s
gust,
m/s
humid.,
%
clouds,
%
prec.,
mm/h
press.,
hPa
HPBL,
m
17 may, mon
mon1700:00+14w34740 0.0 1010108
03:00+13w22781 0.0 101015
06:00+11wnw11825 0.0 101110
09:00+16sse00595 0.0 1012542
12:00+21w23400 0.0 10121542
15:00+24wsw44300 0.0 10091969
18:00+24w56317 0.0 10091741
21:00+19wnw3446100 0.0 101074
18 may, tue
tue1800:00+17wnw01565 0.0 101111
03:00+16e11580 0.0 101011
06:00+15ese11590 0.0 101111
09:00+21se12400 0.0 1011523
12:00+26wsw58280 0.0 10101892
15:00+28w79270 0.0 10092345
18:00+27w1010305 0.0 10092186
21:00+21wnw46522 0.0 101291
19 may, wed
wed1900:00+18nnw22645 0.0 101313
03:00+16ne11720 0.0 101411
06:00+15ene227324 0.0 101411
09:00+21e22525 0.0 1015459
12:00+26se11270 0.0 10141343
15:00+29wnw22205 0.0 10121964
18:00+29w33200 0.0 10101971
21:00+23wnw22320 0.0 101011
20 may, thu
thu2000:00+21w12400 0.0 101111
03:00+18wsw11500 0.0 101011
06:00+17s01560 0.0 100911
09:00+23se11370 0.0 1010477
12:00+28sw23220 0.0 10091669
15:00+30wsw55190 0.0 10071925
18:00+29w76190 0.0 10071740
21:00+22nw22330 0.0 100812
21 may, fri
fri2100:00+20sw11430 0.0 100911
03:00+19ese11420 0.0 100811
06:00+18e22410 0.0 100812
09:00+24ese34317 0.0 1007471
12:00+28s6721100 0.0 10051329
15:00+26wnw6626100 0.0 1005684
18:00+20wnw7753100 0.0 1007672
21:00+16nw3379100 0.6 1009382